1483761600.61,53991,3.44,72290.5,-29.27,-53.09,-53.69,0,*6F
1483761601.86,53992,3.44,72288.8,-29.27,-52.87,-53.53,0,*62
1483761603.11,53993,3.44,72302.0,-29.27,-52.87,-53.31,0,*67
1483761604.37,53994,3.44,72302.5,-29.27,-52.65,-53.23,0,*6F
1483761605.64,53995,3.44,72300.0,-29.29,-53.09,-53.45,0,*6B
1483761606.91,53996,3.44,72296.5,-29.29,-52.87,-53.45,0,*6F
1483761608.2,53997,3.44,72290.0,-29.29,-52.57,-53.23,0,*63
1483761609.45,53998,3.44,72312.3,-29.27,-52.79,-53.23,0,*6E
1483761610.74,53999,3.38,72294.8,-29.29,-52.57,-53.23,0,*6D
1483761611.99,54000,3.44,72312.0,-29.27,-52.87,-53.31,0,*63
1483761613.24,54001,3.44,72324.8,-29.27,-52.79,-53.31,0,*63
1483761614.51,54002,3.44,72310.0,-29.29,-52.79,-53.23,0,*6D
1483761615.79,54003,3.44,72306.0,-29.29,-52.87,-53.31,0,*6E
1483761617.06,54004,3.44,72320.3,-29.29,-52.79,-53.31,0,*68
1483761618.33,54005,3.44,72314.3,-29.29,-52.79,-53.23,0,*6A
1483761619.62,54006,3.44,72302.5,-29.29,-52.65,-53.23,0,*64
1483761620.9,54007,3.44,72304.5,-29.29,-52.65,-53.23,0,*65
1483761622.15,54008,3.44,72304.3,-29.31,-53.09,-53.45,0,*68
1483761623.41,54009,3.44,72298.5,-29.29,-52.79,-53.45,0,*66
1483761624.68,54010,3.44,72306.5,-29.29,-52.79,-53.31,0,*6D
1483761625.93,54011,3.44,72302.3,-29.31,-52.79,-53.31,0,*65
1483761627.19,54012,3.44,72296.0,-29.31,-52.65,-53.23,0,*68
1483761628.46,54013,3.44,72288.8,-29.29,-52.79,-53.23,0,*6D
1483761629.73,54014,3.44,72316.5,-29.29,-52.79,-53.31,0,*69
1483761630.99,54015,3.44,72298.3,-29.31,-52.65,-53.23,0,*6F
1483761632.22,54016,3.38,72304.8,-29.31,-52.57,-53.09,0,*65
1483761633.47,54017,3.44,72304.3,-29.29,-52.57,-53.01,0,*65
1483761634.7,54018,3.38,72290.3,-29.31,-52.65,-53.09,0,*6A
1483761635.95,54019,3.44,72304.3,-29.31,-52.79,-53.23,0,*6E
1483761637.22,54020,3.44,72296.5,-29.29,-52.79,-53.31,0,*6E
1483761638.45,54021,3.44,72284.3,-29.31,-52.57,-53.09,0,*61
1483761639.67,54022,3.44,72296.8,-29.31,-52.79,-53.09,0,*6E
1483761640.92,54023,3.44,72282.0,-29.29,-52.65,-53.09,0,*6B
1483761642.16,54024,3.44,72298.5,-29.31,-52.79,-53.31,0,*63
1483761643.39,54025,3.44,72268.5,-29.31,-52.57,-53.09,0,*65
1483761644.64,54026,3.44,72286.3,-29.31,-52.79,-53.31,0,*61
1483761645.89,54027,3.44,72296.3,-29.31,-52.87,-53.31,0,*61
1483761647.11,54028,3.44,72276.5,-29.31,-52.65,-53.09,0,*69
1483761648.34,54029,3.44,72290.8,-29.31,-52.57,-53.01,0,*61
1483761649.59,54030,3.44,72284.3,-29.31,-52.79,-53.23,0,*65
1483761650.84,54031,3.44,72290.3,-29.31,-52.79,-53.31,0,*67
1483761652.08,54032,3.44,72282.3,-29.33,-52.93,-53.39,0,*6A
1483761653.33,54033,3.44,72288.8,-29.33,-52.65,-53.15,0,*6C
1483761654.6,54034,3.44,72282.8,-29.33,-52.93,-53.31,0,*64
1483761655.88,54035,3.44,72274.5,-29.33,-52.93,-53.15,0,*63
1483761657.12,54036,3.44,72248.0,-29.33,-52.87,-53.31,0,*63
1483761658.35,54037,3.44,72300.8,-29.33,-52.87,-53.39,0,*6A
1483761659.59,54038,3.44,72304.0,-29.33,-52.51,-53.09,0,*6D
1483761660.82,54039,3.44,72278.3,-29.33,-52.65,-53.09,0,*6B
1483761662.09,54040,3.44,72276.0,-29.33,-52.51,-52.93,0,*60
1483761663.34,54041,3.44,72296.5,-29.33,-52.51,-53.09,0,*63
1483761664.57,54042,3.44,72294.3,-29.31,-52.57,-53.01,0,*6C
1483761665.79,54043,3.44,72288.0,-29.31,-52.65,-53.09,0,*64
1483761667.07,54044,3.44,72294.8,-29.33,-52.73,-53.15,0,*6B
1483761668.31,54045,3.44,72294.5,-29.33,-52.93,-53.39,0,*6A
1483761669.58,54046,3.44,72286.0,-29.33,-52.51,-52.93,0,*66
1483761670.83,54047,3.44,72294.5,-29.33,-52.51,-53.09,0,*65
1483761672.08,54048,3.44,72290.0,-29.31,-52.43,-53.09,0,*6B
1483761673.31,54049,3.44,72278.0,-29.33,-52.65,-53.09,0,*6C
1483761674.53,54050,3.44,72306.5,-29.33,-52.65,-53.09,0,*64
1483761675.78,54051,3.44,72286.8,-29.31,-52.43,-53.01,0,*6B
1483761677.03,54052,3.44,72294.3,-29.33,-52.51,-53.09,0,*61
1483761678.3,54053,3.44,72298.3,-29.33,-52.51,-52.93,0,*62
1483761679.54,54054,3.44,72296.8,-29.33,-52.21,-52.65,0,*6B
1483761680.82,54055,3.44,72300.5,-29.33,-52.29,-52.73,0,*65
1483761682.09,54056,3.44,72300.0,-29.33,-52.43,-52.93,0,*64
1483761683.34,54057,3.44,72294.8,-29.31,-52.43,-52.87,0,*62
1483761684.6,54058,3.44,72306.5,-29.31,-52.57,-53.23,0,*67
1483761685.85,54059,3.44,72288.8,-29.33,-52.65,-53.15,0,*60
1483761687.08,54060,3.44,72300.3,-29.33,-52.87,-53.39,0,*68
1483761688.35,54061,3.44,72298.3,-29.37,-52.73,-53.31,0,*6E
1483761689.6,54062,3.38,72288.0,-29.33,-52.93,-53.39,0,*6F
1483761690.84,54063,3.44,72300.0,-29.33,-52.93,-53.39,0,*6E
1483761692.06,54064,3.44,72292.3,-29.33,-52.87,-53.39,0,*6C
1483761693.33,54065,3.44,72300.3,-29.33,-52.93,-53.53,0,*64
1483761694.58,54066,3.44,72294.5,-29.33,-52.73,-53.09,0,*66
1483761695.86,54067,3.44,72286.8,-29.33,-52.73,-53.31,0,*6C
1483761697.13,54068,3.44,72286.3,-29.33,-52.93,-53.31,0,*6D
1483761698.38,54069,3.44,72290.3,-29.37,-52.87,-53.31,0,*6D
1483761699.63,54070,3.44,72296.8,-29.37,-52.73,-53.39,0,*66
1483761700.87,54071,3.44,72294.8,-29.37,-52.87,-53.31,0,*64
1483761702.12,54072,3.44,72284.8,-29.37,-52.73,-53.39,0,*64
1483761703.37,54073,3.44,72286.3,-29.37,-52.65,-53.15,0,*6C
1483761704.62,54074,3.44,72300.5,-29.37,-52.73,-53.39,0,*62
1483761705.9,54075,3.44,72292.0,-29.37,-52.73,-53.31,0,*6B
1483761707.12,54076,3.44,72290.5,-29.37,-52.65,-53.09,0,*64
1483761708.36,54077,3.44,72294.0,-29.33,-52.51,-53.09,0,*66
1483761709.64,54078,3.44,72294.5,-29.37,-52.73,-53.31,0,*66
1483761710.89,54079,3.44,72292.0,-29.37,-52.87,-53.53,0,*68
1483761712.13,54080,3.44,72294.8,-29.33,-52.93,-53.39,0,*63
1483761713.36,54081,3.44,72278.0,-29.37,-52.87,-53.39,0,*63
1483761714.6,54082,3.44,72280.5,-29.37,-52.65,-53.15,0,*62
1483761715.83,54083,3.44,72276.0,-29.33,-52.65,-53.09,0,*6A
1483761717.12,54084,3.44,72292.0,-29.39,-52.73,-53.15,0,*6D
1483761718.4,54085,3.38,72278.5,-29.39,-52.73,-53.01,0,*69
1483761719.67,54086,3.44,72290.8,-29.37,-52.43,-52.93,0,*6D
1483761720.92,54087,3.44,72294.5,-29.39,-52.57,-53.01,0,*6D
1483761722.2,54088,3.44,72294.0,-29.39,-52.57,-53.23,0,*62
1483761723.47,54089,3.44,72294.5,-29.39,-52.79,-53.23,0,*6F
1483761724.74,54090,3.44,72286.8,-29.37,-52.73,-53.15,0,*66
1483761725.99,54091,3.44,72286.3,-29.37,-52.73,-53.09,0,*6A
1483761727.26,54092,3.38,72282.5,-29.39,-52.79,-53.23,0,*65
1483761728.52,54093,3.44,72284.5,-29.39,-52.79,-53.23,0,*64
1483761729.82,54094,3.44,72286.3,-29.39,-52.73,-53.15,0,*6C
1483761731.12,54095,3.44,72294.0,-29.39,-52.73,-53.15,0,*6D
1483761732.42,54096,3.44,72306.5,-29.39,-52.73,-53.15,0,*6E
1483761733.68,54097,3.44,72300.8,-29.39,-52.79,-53.23,0,*60
1483761734.92,54098,3.44,72286.5,-29.39,-52.79,-53.39,0,*64
1483761736.19,54099,3.44,72276.3,-29.39,-52.79,-53.23,0,*6E
1483761737.46,54100,3.44,72278.5,-29.39,-52.73,-53.01,0,*65
1483761738.76,54101,3.44,72294.8,-29.39,-52.51,-52.93,0,*6E
1483761740.05,54102,3.44,72296.5,-29.39,-52.73,-53.15,0,*62
1483761741.35,54103,3.44,72278.5,-29.39,-52.73,-53.15,0,*63
1483761742.62,54104,3.44,72280.3,-29.39,-52.79,-53.23,0,*6B
1483761743.88,54105,3.44,72278.5,-29.39,-52.79,-53.45,0,*6A
1483761745.12,54106,3.38,72272.5,-29.39,-52.79,-53.39,0,*62
1483761746.41,54107,3.44,72268.5,-29.39,-52.51,-52.93,0,*68
1483761747.69,54108,3.44,72280.8,-29.39,-52.57,-52.93,0,*61
1483761748.96,54109,3.44,72278.5,-29.39,-52.29,-52.57,0,*61
1483761750.23,54110,3.44,72310.8,-29.39,-52.21,-52.57,0,*61
1483761751.5,54111,3.44,72286.0,-29.39,-52.07,-52.51,0,*62
1483761752.76,54112,3.44,72280.3,-29.39,-51.85,-52.21,0,*6F
1483761754.01,54113,3.44,72276.5,-29.39,-52.07,-52.57,0,*66
1483761755.25,54114,3.44,72278.8,-29.39,-52.35,-52.79,0,*6C
1483761756.54,54115,3.44,72260.3,-29.39,-52.29,-52.73,0,*6A
1483761757.84,54116,3.44,72256.0,-29.39,-52.29,-52.73,0,*69
1483761759.12,54117,3.44,72312.3,-29.37,-51.91,-52.43,0,*65
1483761760.36,54118,3.44,72288.8,-29.37,-51.77,-52.29,0,*6E
1483761761.63,54119,3.44,72280.0,-29.33,-52.29,-52.73,0,*6C
1483761762.88,54120,3.44,72288.8,-29.37,-52.43,-52.87,0,*65
1483761764.1,54121,3.44,72270.3,-29.37,-52.65,-53.09,0,*67
1483761765.33,54122,3.44,72264.3,-29.37,-52.65,-53.09,0,*64
1483761766.57,54123,3.44,72264.8,-29.37,-52.29,-52.87,0,*6A
1483761767.84,54124,3.44,72288.5,-29.37,-51.91,-52.29,0,*69
1483761769.09,54125,3.44,72284.3,-29.33,-51.77,-52.21,0,*6C
1483761770.36,54126,3.44,72276.0,-29.37,-51.99,-52.51,0,*6C
1483761771.61,54127,3.44,72276.8,-29.33,-51.77,-52.43,0,*6A
1483761772.86,54128,3.44,72302.0,-29.33,-51.69,-52.21,0,*6E
1483761774.14,54129,3.44,72290.5,-29.37,-51.91,-52.43,0,*68
1483761775.41,54130,3.44,72270.8,-29.33,-51.91,-52.43,0,*64
1483761776.66,54131,3.44,72274.5,-29.33,-52.13,-52.65,0,*68
1483761777.91,54132,3.44,72286.8,-29.33,-52.21,-52.65,0,*6A
1483761779.19,54133,3.44,72304.0,-29.33,-51.91,-52.43,0,*67
1483761780.43,54134,3.44,72298.0,-29.31,-51.85,-52.21,0,*63
1483761781.71,54135,3.44,72294.0,-29.31,-51.91,-52.43,0,*63
1483761782.99,54136,3.44,72290.3,-29.31,-51.91,-52.13,0,*65
1483761784.23,54137,3.44,72280.3,-29.29,-52.07,-52.65,0,*60
1483761785.48,54138,3.44,72286.3,-29.31,-52.13,-52.65,0,*63
1483761786.74,54139,3.44,72296.5,-29.29,-52.35,-52.87,0,*63
1483761787.99,54140,3.44,72306.0,-29.31,-52.13,-52.57,0,*6D
1483761789.24,54141,3.44,72300.0,-29.31,-52.13,-52.79,0,*60
1483761790.49,54142,3.44,72314.0,-29.29,-52.35,-52.79,0,*6E
1483761791.74,54143,3.44,72286.0,-29.29,-52.35,-52.87,0,*6E
1483761792.97,54144,3.44,72278.5,-29.31,-52.35,-52.87,0,*60
1483761794.22,54145,3.38,72268.3,-29.31,-52.21,-52.65,0,*68
1483761795.49,54146,3.44,72290.5,-29.29,-52.43,-52.79,0,*6B
1483761796.75,54147,3.44,72268.8,-29.31,-52.43,-52.87,0,*62
1483761798.0,54148,3.44,72304.3,-29.31,-52.43,-52.87,0,*6D
1483761799.23,54149,3.44,72280.5,-29.31,-52.57,-53.01,0,*66
1483761800.49,54150,3.44,72282.0,-29.29,-52.57,-52.87,0,*68
1483761801.72,54151,3.44,72298.3,-29.31,-52.65,-53.09,0,*66
1483761802.95,54152,3.44,72308.8,-29.31,-52.57,-53.01,0,*6C
1483761804.2,54153,3.44,72304.3,-29.31,-52.13,-52.57,0,*6F
1483761805.42,54154,3.44,72306.8,-29.31,-52.35,-52.79,0,*60
1483761806.67,54155,3.44,72306.5,-29.31,-52.43,-52.87,0,*61
1483761807.93,54156,3.44,72310.0,-29.29,-52.57,-53.09,0,*69
1483761809.2,54157,3.38,72306.5,-29.33,-52.73,-53.15,0,*68
1483761810.46,54158,3.44,72318.5,-29.31,-52.65,-53.23,0,*67
1483761811.69,54159,3.44,72312.3,-29.31,-52.57,-53.01,0,*67
1483761812.95,54160,3.44,72312.8,-29.31,-52.65,-53.23,0,*6C
1483761814.18,54161,3.44,72312.0,-29.31,-52.57,-53.09,0,*64
1483761815.41,54162,3.44,72304.3,-29.31,-52.65,-53.01,0,*6E
1483761816.63,54163,3.44,72312.5,-29.31,-52.65,-53.09,0,*67
1483761817.86,54164,3.44,72312.0,-29.31,-52.57,-53.01,0,*69
1483761819.14,54165,3.44,72312.5,-29.33,-52.73,-53.31,0,*6F
1483761820.36,54166,3.44,72314.5,-29.31,-52.65,-53.09,0,*62
1483761821.59,54167,3.44,72318.3,-29.33,-52.65,-53.09,0,*61
1483761822.83,54168,3.44,72322.3,-29.33,-52.73,-53.09,0,*69
1483761824.11,54169,3.44,72304.5,-29.33,-52.73,-53.15,0,*65
1483761825.38,54170,3.38,72308.3,-29.33,-52.73,-53.15,0,*6D
1483761826.63,54171,3.44,72306.0,-29.37,-52.87,-53.15,0,*63
1483761827.9,54172,3.44,72296.5,-29.37,-52.73,-53.15,0,*6B
1483761829.13,54173,3.44,72290.8,-29.37,-52.65,-53.09,0,*60
1483761830.37,54174,3.44,72310.3,-29.33,-52.73,-53.09,0,*64
1483761831.6,54175,3.44,72314.8,-29.33,-52.65,-53.09,0,*62
1483761832.85,54176,3.44,72316.0,-29.37,-52.43,-52.87,0,*66
1483761834.12,54177,3.44,72310.3,-29.37,-52.43,-52.93,0,*62
1483761835.39,54178,3.44,72318.0,-29.33,-52.43,-52.93,0,*69
1483761836.64,54179,3.44,72316.8,-29.33,-52.43,-52.87,0,*6D
1483761837.91,54180,3.44,72328.5,-29.37,-52.43,-52.93,0,*6A
1483761839.16,54181,3.44,72318.3,-29.33,-52.73,-53.09,0,*6E
1483761840.41,54182,3.44,72292.0,-29.33,-52.21,-52.65,0,*61
1483761841.66,54183,3.44,72290.5,-29.37,-52.29,-52.87,0,*60
1483761842.93,54184,3.44,72246.3,-29.33,-52.43,-52.73,0,*64
1483761844.19,54185,3.44,72252.8,-29.37,-51.69,-51.91,0,*65
1483761845.45,54186,3.44,72284.8,-29.37,-51.91,-52.29,0,*61
1483761846.73,54187,3.44,72280.5,-29.37,-52.29,-52.73,0,*6F
1483761848.0,54188,3.38,72252.8,-29.33,-52.51,-52.93,0,*65
1483761849.24,54189,3.44,72302.3,-29.33,-51.77,-52.29,0,*62
1483761850.49,54190,3.44,72268.0,-29.33,-51.25,-51.69,0,*6A
1483761851.74,54191,3.44,72282.8,-29.33,-51.77,-51.99,0,*63
1483761853.01,54192,3.44,72296.8,-29.31,-51.91,-52.13,0,*6B
1483761854.29,54193,3.44,72284.5,-29.31,-52.21,-52.43,0,*67
1483761855.58,54194,3.44,72290.8,-29.29,-52.35,-52.43,0,*6C
1483761856.83,54195,3.44,72298.5,-29.31,-52.43,-52.65,0,*61
1483761858.1,54196,3.44,72296.5,-29.29,-52.43,-52.79,0,*66
1483761859.38,54197,3.44,72316.3,-29.29,-52.43,-52.87,0,*66
1483761860.63,54198,3.44,72296.0,-29.31,-52.43,-52.79,0,*61
1483761861.86,54199,3.44,72304.5,-29.31,-52.65,-52.87,0,*65
1483761863.09,54200,3.44,72302.3,-29.31,-52.65,-52.87,0,*66
1483761864.37,54201,3.44,72304.3,-29.29,-52.43,-52.87,0,*6A
1483761865.6,54202,3.44,72300.8,-29.31,-52.57,-53.01,0,*6A
1483761866.85,54203,3.44,72302.3,-29.29,-52.65,-53.09,0,*6B
1483761868.11,54204,3.44,72302.5,-29.31,-52.87,-53.23,0,*61
1483761869.36,54205,3.44,72300.0,-29.29,-52.87,-53.09,0,*61
1483761870.59,54206,3.44,72302.3,-29.31,-52.65,-53.01,0,*6F
1483761871.8,54207,3.44,72288.0,-29.31,-52.79,-53.09,0,*6B
1483761873.06,54208,3.44,72298.5,-29.31,-53.01,-53.31,0,*61
1483761874.31,54209,3.44,72298.3,-29.31,-53.01,-53.31,0,*60
1483761875.53,54210,3.44,72292.0,-29.31,-52.79,-53.01,0,*65
1483761876.75,54211,3.44,72302.8,-29.31,-52.87,-53.09,0,*6D
1483761878.0,54212,3.44,72298.0,-29.33,-52.93,-53.39,0,*6A
1483761879.25,54213,3.44,72296.5,-29.33,-52.93,-53.39,0,*6B
1483761880.49,54214,3.44,72312.8,-29.37,-52.93,-53.39,0,*68
1483761881.74,54215,3.44,72298.3,-29.33,-52.65,-53.15,0,*6A
1483761883.01,54216,3.44,72298.3,-29.33,-52.93,-53.31,0,*66
1483761884.26,54217,3.44,72300.8,-29.37,-52.93,-53.39,0,*6B
1483761885.51,54218,3.44,72314.8,-29.33,-52.87,-53.31,0,*6D
1483761886.75,54219,3.44,72304.8,-29.33,-52.87,-53.31,0,*6C
1483761888.03,54220,3.44,72314.8,-29.33,-52.93,-53.15,0,*65
1483761889.3,54221,3.44,72300.0,-29.33,-52.93,-53.31,0,*62
1483761890.57,54222,3.44,72300.3,-29.33,-52.93,-53.31,0,*61
1483761891.84,54223,3.44,72294.0,-29.33,-52.93,-53.31,0,*60
1483761893.09,54224,3.44,72290.0,-29.37,-53.15,-53.39,0,*64
1483761894.33,54225,3.44,72302.8,-29.37,-53.09,-53.31,0,*60
1483761895.61,54226,3.44,72300.3,-29.33,-52.93,-53.31,0,*65
1483761896.88,54227,3.44,72296.3,-29.37,-52.93,-53.31,0,*60
1483761898.1,54228,3.44,72300.8,-29.37,-52.87,-53.39,0,*62
1483761899.32,54229,3.44,72316.5,-29.37,-53.09,-53.39,0,*64
1483761900.57,54230,3.44,72330.8,-29.39,-53.01,-53.39,0,*6A
1483761901.87,54231,3.38,72308.8,-29.39,-52.93,-53.23,0,*6A
1483761903.15,54232,3.44,72304.5,-29.39,-53.15,-53.45,0,*66
1483761904.44,54233,3.44,72300.5,-29.39,-53.15,-53.45,0,*67
1483761905.7,54234,3.44,72304.5,-29.39,-53.39,-53.61,0,*68
1483761906.99,54235,3.44,72304.8,-29.39,-53.15,-53.45,0,*61
1483761908.26,54236,3.44,72286.0,-29.39,-53.15,-53.39,0,*69
1483761909.51,54237,3.44,72308.8,-29.39,-53.01,-53.39,0,*6D
1483761910.81,54238,3.44,72304.8,-29.39,-52.93,-53.23,0,*63
1483761912.07,54239,3.44,72310.3,-29.39,-52.79,-53.15,0,*63
1483761913.32,54240,3.44,72294.3,-29.39,-52.57,-53.01,0,*64
1483761914.62,54241,3.44,72282.0,-29.39,-52.93,-53.23,0,*6D
1483761915.92,54242,3.44,72282.3,-29.39,-52.93,-53.23,0,*6E
1483761917.18,54243,3.44,72302.3,-29.39,-52.79,-53.15,0,*6E
1483761918.45,54244,3.44,72284.0,-29.39,-53.01,-53.45,0,*62
1483761919.75,54245,3.44,72292.3,-29.39,-52.93,-53.23,0,*69
1483761921.04,54246,3.44,72304.0,-29.39,-52.93,-53.15,0,*6F
1483761922.31,54247,3.44,72304.0,-29.39,-53.15,-53.39,0,*6F
1483761923.58,54248,3.44,72298.3,-29.39,-53.01,-53.45,0,*6E
1483761924.87,54249,3.44,72300.0,-29.39,-53.23,-53.45,0,*6F
1483761926.16,54250,3.44,72298.5,-29.39,-53.15,-53.45,0,*62
1483761927.42,54251,3.44,72302.3,-29.39,-53.15,-53.39,0,*68
1483761928.67,54252,3.44,72298.0,-29.39,-53.01,-53.39,0,*6E
1483761929.96,54253,3.44,72292.3,-29.39,-53.15,-53.61,0,*67
1483761931.25,54254,3.44,72296.8,-29.39,-53.15,-53.61,0,*60
1483761932.54,54255,3.44,72306.8,-29.39,-53.15,-53.45,0,*67
1483761933.8,54256,3.44,72308.8,-29.39,-53.01,-53.45,0,*61
1483761935.09,54257,3.44,72276.5,-29.39,-53.15,-53.45,0,*65
1483761936.37,54258,3.44,72280.8,-29.39,-53.01,-53.23,0,*6F
1483761937.64,54259,3.44,72296.5,-29.39,-52.73,-53.01,0,*6A
1483761938.93,54260,3.44,72302.0,-29.39,-53.15,-53.45,0,*61
1483761940.21,54261,3.44,72272.3,-29.41,-52.93,-53.23,0,*60
1483761941.48,54262,3.44,72306.8,-29.41,-52.93,-53.15,0,*66
1483761942.71,54263,3.44,72284.8,-29.41,-52.35,-52.79,0,*60
1483761943.98,54264,3.44,72254.0,-29.39,-52.57,-52.93,0,*68
1483761945.28,54265,3.44,72280.3,-29.39,-52.51,-52.93,0,*6F
1483761946.57,54266,3.44,72288.3,-29.39,-52.51,-52.93,0,*6C
1483761947.84,54267,3.44,72278.3,-29.39,-52.51,-52.79,0,*69
1483761949.09,54268,3.44,72292.3,-29.39,-52.57,-53.01,0,*6E
1483761950.34,54269,3.44,72300.8,-29.39,-52.57,-53.01,0,*6F
1483761951.59,54270,3.44,72290.3,-29.39,-52.57,-53.01,0,*67
1483761952.87,54271,3.38,72300.0,-29.39,-52.57,-52.73,0,*62
1483761954.14,54272,3.44,72302.5,-29.39,-52.57,-52.93,0,*6F
1483761955.39,54273,3.38,72300.3,-29.39,-52.57,-53.01,0,*64
1483761956.69,54274,3.44,72292.5,-29.39,-52.73,-53.15,0,*60
1483761957.95,54275,3.44,72304.5,-29.39,-52.79,-53.15,0,*6B
1483761959.25,54276,3.44,72296.3,-29.39,-52.93,-53.15,0,*6C
1483761960.55,54277,3.44,72304.8,-29.39,-52.73,-53.15,0,*63
1483761961.81,54278,3.44,72294.0,-29.39,-52.79,-53.23,0,*63
1483761963.08,54279,3.44,72298.3,-29.39,-52.79,-53.23,0,*62
1483761964.35,54280,3.44,72292.5,-29.39,-52.93,-53.39,0,*6B
1483761965.6,54281,3.44,72300.5,-29.39,-53.01,-53.39,0,*60
1483761966.87,54282,3.44,72306.3,-29.39,-52.93,-53.39,0,*69
1483761968.16,54283,3.44,72298.0,-29.39,-52.93,-53.23,0,*63
1483761969.42,54284,3.44,72296.8,-29.41,-52.93,-53.39,0,*60
1483761970.68,54285,3.44,72298.3,-29.39,-52.79,-53.23,0,*61
1483761971.95,54286,3.44,72300.5,-29.39,-52.79,-53.23,0,*62
1483761973.25,54287,3.44,72314.0,-29.39,-52.93,-53.23,0,*67
1483761974.54,54288,3.44,72312.0,-29.39,-52.93,-53.15,0,*6D
1483761975.84,54289,3.44,72308.5,-29.39,-52.73,-53.15,0,*62
1483761977.1,54290,3.44,72310.0,-29.39,-52.79,-53.15,0,*60
1483761978.4,54291,3.44,72314.8,-29.39,-52.93,-53.15,0,*65
1483761979.7,54292,3.44,72310.8,-29.39,-52.93,-53.23,0,*63
1483761980.95,54293,3.44,72314.5,-29.41,-53.01,-53.23,0,*67
1483761982.23,54294,3.44,72312.5,-29.41,-52.73,-53.15,0,*61
1483761983.46,54295,3.44,72318.3,-29.41,-53.01,-53.39,0,*6A
1483761984.74,54296,3.44,72314.5,-29.43,-53.01,-53.23,0,*60
1483761985.99,54297,3.44,72326.3,-29.41,-53.01,-53.45,0,*63
1483761987.24,54298,3.44,72320.3,-29.41,-52.93,-53.39,0,*6D
1483761988.5,54299,3.44,72308.5,-29.41,-53.01,-53.23,0,*6D
1483761989.73,54300,3.44,72320.5,-29.41,-53.01,-53.39,0,*67
1483761991.01,54301,3.44,72322.3,-29.43,-53.01,-53.31,0,*6C
1483761992.29,54302,3.44,72322.0,-29.43,-53.01,-53.31,0,*6F
1483761993.53,54303,3.38,72310.0,-29.41,-52.79,-53.15,0,*64
1483761994.81,54304,3.44,72320.5,-29.41,-52.93,-53.23,0,*62
1483761996.09,54305,3.44,72326.3,-29.41,-52.73,-53.15,0,*68
1483761997.34,54306,3.44,72320.5,-29.43,-52.65,-53.09,0,*63
1483761998.6,54307,3.44,72324.3,-29.43,-52.57,-53.09,0,*63
1483761999.82,54308,3.44,72316.5,-29.41,-52.35,-52.79,0,*6C
1483762001.05,54309,3.44,72332.5,-29.41,-52.57,-52.79,0,*69
1483762002.28,54310,3.44,72316.5,-29.41,-52.57,-53.01,0,*6F
1483762003.56,54311,3.44,72318.0,-29.43,-52.87,-53.23,0,*61
1483762004.81,54312,3.44,72316.8,-29.41,-52.51,-52.79,0,*65
1483762006.08,54313,3.44,72330.5,-29.39,-52.79,-53.15,0,*6A
1483762007.37,54314,3.44,72330.3,-29.39,-52.51,-52.93,0,*68
1483762008.65,54315,3.44,72330.0,-29.41,-52.73,-52.93,0,*66
1483762009.88,54316,3.44,72326.8,-29.41,-52.57,-53.01,0,*69
1483762011.15,54317,3.44,72328.5,-29.43,-53.01,-53.45,0,*68
1483762012.38,54318,3.44,72320.3,-29.41,-53.01,-53.39,0,*6E
1483762013.63,54319,3.44,72322.0,-29.41,-53.15,-53.39,0,*6A
1483762014.88,54320,3.44,72322.8,-29.41,-53.15,-53.39,0,*60
1483762016.12,54321,3.44,72316.3,-29.43,-52.79,-53.09,0,*6B
1483762017.43,54322,3.44,72310.0,-29.43,-53.23,-53.31,0,*6D
1483762018.7,54323,3.44,72316.5,-29.41,-53.15,-53.45,0,*68
1483762019.97,54324,3.44,72318.3,-29.41,-53.15,-53.23,0,*6F
1483762021.23,54325,3.44,72306.5,-29.41,-52.73,-53.01,0,*6F
1483762022.5,54326,3.44,72306.3,-29.41,-52.73,-53.15,0,*69
1483762023.73,54327,3.44,72308.3,-29.41,-52.57,-53.01,0,*6B
1483762024.98,54328,3.44,72312.8,-29.43,-52.79,-52.87,0,*65
1483762026.24,54329,3.44,72300.5,-29.41,-52.57,-52.93,0,*6F
1483762027.47,54330,3.44,72304.3,-29.41,-52.57,-53.01,0,*6D
1483762028.72,54331,3.44,72300.8,-29.41,-52.73,-53.01,0,*6A
1483762029.94,54332,3.44,72310.0,-29.41,-52.79,-53.01,0,*63
1483762031.22,54333,3.44,72306.3,-29.41,-52.73,-53.15,0,*6D
1483762032.47,54334,3.38,72312.5,-29.41,-53.01,-53.23,0,*6B
1483762033.75,54335,3.44,72316.3,-29.43,-53.01,-53.31,0,*6B
1483762035.03,54336,3.44,72320.5,-29.43,-53.01,-53.31,0,*68
1483762036.31,54337,3.44,72320.5,-29.43,-53.01,-53.31,0,*69
1483762037.58,54338,3.44,72314.8,-29.43,-53.09,-53.45,0,*6D
1483762038.87,54339,3.44,72316.5,-29.43,-53.23,-53.69,0,*6A
1483762040.15,54340,3.44,72302.0,-29.43,-53.23,-53.69,0,*64
1483762041.45,54341,3.44,72292.8,-29.43,-53.23,-53.53,0,*6C
1483762042.7,54342,3.44,72292.8,-29.41,-53.01,-53.45,0,*6A
1483762043.97,54343,3.44,72306.5,-29.47,-53.31,-53.77,0,*6F
1483762045.24,54344,3.44,72310.8,-29.47,-53.23,-53.77,0,*6B
1483762046.51,54345,3.38,72298.5,-29.47,-53.31,-53.77,0,*69
1483762047.81,54346,3.44,72312.3,-29.47,-53.31,-53.53,0,*6C
1483762049.08,54347,3.44,72314.0,-29.49,-53.31,-53.61,0,*62
1483762050.37,54348,3.44,72308.5,-29.47,-53.23,-53.45,0,*66
1483762051.64,54349,3.44,72304.0,-29.47,-53.09,-53.45,0,*6F
1483762052.91,54350,3.44,72300.5,-29.49,-53.31,-53.53,0,*65
1483762054.17,54351,3.44,72300.0,-29.49,-53.31,-53.77,0,*62
1483762055.45,54352,3.44,72294.5,-29.49,-53.31,-53.83,0,*6A
1483762056.72,54353,3.44,72300.8,-29.47,-53.45,-53.77,0,*6D
1483762057.99,54354,3.44,72302.8,-29.49,-53.31,-53.53,0,*61
1483762059.25,54355,3.44,72302.3,-29.49,-53.15,-53.39,0,*6A
1483762060.5,54356,3.44,72302.0,-29.49,-53.09,-53.53,0,*68
1483762061.77,54357,3.44,72300.3,-29.49,-53.31,-53.61,0,*63
1483762063.07,54358,3.44,72300.3,-29.51,-52.93,-53.53,0,*6D
1483762064.37,54359,3.44,72302.0,-29.51,-53.15,-53.53,0,*63
1483762065.66,54360,3.44,72292.0,-29.51,-53.15,-53.61,0,*68
1483762066.96,54361,3.44,72290.8,-29.51,-53.31,-53.61,0,*6F
1483762068.26,54362,3.44,72292.8,-29.51,-53.15,-53.53,0,*6B
1483762069.55,54363,3.44,72290.3,-29.51,-53.15,-53.61,0,*6B
1483762070.85,54364,3.44,72288.0,-29.51,-53.31,-53.61,0,*6A
1483762072.12,54365,3.44,72292.5,-29.51,-53.39,-53.61,0,*63
1483762073.37,54366,3.44,72302.3,-29.51,-53.39,-53.77,0,*67
1483762074.62,54367,3.44,72296.0,-29.53,-53.09,-53.53,0,*61
1483762075.89,54368,3.44,72306.5,-29.51,-53.39,-53.61,0,*6E
1483762077.18,54369,3.44,72296.5,-29.51,-53.31,-53.53,0,*66
1483762078.46,54370,3.44,72302.0,-29.53,-53.31,-53.53,0,*6C
1483762079.76,54371,3.44,72304.3,-29.51,-53.53,-53.83,0,*66
1483762081.03,54372,3.44,72300.0,-29.53,-53.15,-53.61,0,*69
1483762082.26,54373,3.44,72304.5,-29.53,-53.09,-53.39,0,*68
1483762083.53,54374,3.44,72308.5,-29.53,-52.93,-53.31,0,*65
1483762084.8,54375,3.44,72300.8,-29.53,-53.15,-53.53,0,*6F
1483762086.03,54376,3.44,72296.3,-29.53,-53.39,-53.77,0,*64
1483762087.3,54377,3.44,72310.5,-29.53,-53.31,-53.61,0,*6A
1483762088.59,54378,3.44,72300.0,-29.59,-53.15,-53.45,0,*6F
1483762089.89,54379,3.44,72306.5,-29.55,-53.23,-53.45,0,*67
1483762091.14,54380,3.44,72314.8,-29.59,-53.39,-53.69,0,*68
1483762092.41,54381,3.44,72314.0,-29.55,-53.15,-53.39,0,*6E
1483762093.69,54382,3.44,72308.8,-29.55,-53.23,-53.69,0,*6D
1483762094.97,54383,3.44,72314.3,-29.55,-53.23,-53.69,0,*6C
1483762096.26,54384,3.44,72300.8,-29.55,-53.15,-53.45,0,*60
1483762097.56,54385,3.44,72290.5,-29.59,-52.93,-53.45,0,*62
1483762098.83,54386,3.44,72300.5,-29.55,-53.01,-53.45,0,*67
1483762100.12,54387,3.44,72332.8,-29.59,-53.15,-53.45,0,*6F
1483762101.39,54388,3.44,72298.5,-29.59,-52.79,-53.15,0,*6E
1483762102.69,54389,3.44,72278.3,-29.55,-52.51,-52.73,0,*68
1483762103.93,54390,3.44,72296.0,-29.55,-52.79,-53.01,0,*6E